TimeEST,TemperatureF,Dew PointF,Humidity,Sea Level PressureIn,VisibilityMPH,Wind Direction,Wind SpeedMPH,Gust SpeedMPH,PrecipitationIn,Events,Conditions,WindDirDegrees,DateUTC
12:15 AM,24.8,21.2,86,30.55,10.0,Calm,Calm,-,N/A,,Clear,0,2013-11-25 05:15:00
12:35 AM,26.6,19.4,74,30.56,10.0,Calm,Calm,-,N/A,,Clear,0,2013-11-25 05:35:00
12:55 AM,24.8,21.2,86,30.56,10.0,Calm,Calm,-,N/A,,Clear,0,2013-11-25 05:55:00
1:15 AM,24.8,23.0,93,30.55,10.0,Calm,Calm,-,N/A,,Clear,0,2013-11-25 06:15:00
1:35 AM,24.8,23.0,93,30.54,10.0,Calm,Calm,-,N/A,,Clear,0,2013-11-25 06:35:00
1:55 AM,24.8,21.2,86,30.54,10.0,Calm,Calm,-,N/A,,Clear,0,2013-11-25 06:55:00
2:15 AM,24.8,21.2,86,30.55,10.0,Calm,Calm,-,N/A,,Clear,0,2013-11-25 07:15:00
2:35 AM,23.0,19.4,86,30.55,10.0,Calm,Calm,-,N/A,,Clear,0,2013-11-25 07:35:00
2:55 AM,24.8,21.2,86,30.55,10.0,Calm,Calm,-,N/A,,Clear,0,2013-11-25 07:55:00
3:15 AM,24.8,19.4,80,30.54,10.0,Calm,Calm,-,N/A,,Clear,0,2013-11-25 08:15:00
3:35 AM,24.8,21.2,86,30.55,10.0,Calm,Calm,-,N/A,,Clear,0,2013-11-25 08:35:00
3:55 AM,24.8,21.2,86,30.55,10.0,Calm,Calm,-,N/A,,Clear,0,2013-11-25 08:55:00
4:15 AM,23.0,21.2,93,30.55,10.0,Calm,Calm,-,N/A,,Clear,0,2013-11-25 09:15:00
4:35 AM,23.0,21.2,93,30.55,10.0,Calm,Calm,-,N/A,,Clear,0,2013-11-25 09:35:00
4:55 AM,23.0,19.4,86,30.54,10.0,Calm,Calm,-,N/A,,Clear,0,2013-11-25 09:55:00
5:15 AM,23.0,19.4,86,30.55,10.0,Calm,Calm,-,N/A,,Clear,0,2013-11-25 10:15:00
5:35 AM,24.8,19.4,80,30.55,10.0,Calm,Calm,-,N/A,,Clear,0,2013-11-25 10:35:00
5:55 AM,24.8,19.4,80,30.56,10.0,Calm,Calm,-,N/A,,Clear,0,2013-11-25 10:55:00
6:15 AM,23.0,19.4,86,30.57,10.0,Calm,Calm,-,N/A,,Clear,0,2013-11-25 11:15:00
6:35 AM,23.0,19.4,86,30.57,10.0,Calm,Calm,-,N/A,,Clear,0,2013-11-25 11:35:00
6:55 AM,23.0,19.4,86,30.57,10.0,Calm,Calm,-,N/A,,Clear,0,2013-11-25 11:55:00
7:15 AM,23.0,19.4,86,30.57,10.0,Calm,Calm,-,N/A,,Clear,0,2013-11-25 12:15:00
7:35 AM,24.8,19.4,80,30.58,10.0,Calm,Calm,-,N/A,,Clear,0,2013-11-25 12:35:00
7:55 AM,26.6,21.2,80,30.58,10.0,Calm,Calm,-,N/A,,Clear,0,2013-11-25 12:55:00
8:15 AM,28.4,19.4,69,30.58,10.0,Calm,Calm,-,N/A,,Clear,0,2013-11-25 13:15:00
8:35 AM,28.4,19.4,69,30.58,10.0,Calm,Calm,-,N/A,,Clear,0,2013-11-25 13:35:00
8:55 AM,32.0,19.4,60,30.59,10.0,ESE,4.6,-,N/A,,Clear,110,2013-11-25 13:55:00
9:15 AM,32.0,17.6,55,30.59,10.0,ESE,5.8,-,N/A,,Clear,110,2013-11-25 14:15:00
9:35 AM,35.6,15.8,44,30.60,10.0,Calm,Calm,-,N/A,,Clear,0,2013-11-25 14:35:00
9:55 AM,37.4,12.2,36,30.59,10.0,East,9.2,-,N/A,,Clear,100,2013-11-25 14:55:00
10:15 AM,39.2,14.0,36,30.58,10.0,East,5.8,-,N/A,,Clear,80,2013-11-25 15:15:00
10:35 AM,39.2,12.2,33,30.58,10.0,East,9.2,-,N/A,,Clear,100,2013-11-25 15:35:00
10:55 AM,41.0,10.4,29,30.56,10.0,East,5.8,-,N/A,,Clear,90,2013-11-25 15:55:00
11:15 AM,41.0,10.4,29,30.55,10.0,ENE,8.1,-,N/A,,Clear,70,2013-11-25 16:15:00
11:35 AM,42.8,10.4,27,30.53,10.0,NE,10.4,-,N/A,,Clear,40,2013-11-25 16:35:00
11:55 AM,44.6,10.4,25,30.52,10.0,NE,10.4,-,N/A,,Clear,40,2013-11-25 16:55:00
12:15 PM,44.6,8.6,23,30.51,10.0,ENE,8.1,-,N/A,,Clear,70,2013-11-25 17:15:00
12:35 PM,46.4,8.6,22,30.50,10.0,NE,6.9,-,N/A,,Clear,50,2013-11-25 17:35:00
12:55 PM,46.4,10.4,23,30.48,10.0,NE,8.1,-,N/A,,Clear,50,2013-11-25 17:55:00
1:15 PM,46.4,12.2,25,30.48,10.0,NNE,5.8,-,N/A,,Clear,30,2013-11-25 18:15:00
1:35 PM,46.4,14.0,27,30.46,10.0,NE,8.1,-,N/A,,Clear,40,2013-11-25 18:35:00
1:55 PM,48.2,15.8,27,30.45,10.0,ESE,8.1,-,N/A,,Clear,120,2013-11-25 18:55:00
2:15 PM,48.2,15.8,27,30.44,10.0,East,6.9,-,N/A,,Clear,80,2013-11-25 19:15:00
2:35 PM,48.2,15.8,27,30.43,10.0,NE,6.9,-,N/A,,Clear,50,2013-11-25 19:35:00
2:55 PM,48.2,17.6,30,30.43,10.0,ENE,6.9,-,N/A,,Clear,60,2013-11-25 19:55:00
3:15 PM,48.2,17.6,30,30.43,10.0,ESE,4.6,-,N/A,,Clear,120,2013-11-25 20:15:00
3:35 PM,48.2,17.6,30,30.43,10.0,East,5.8,-,N/A,,Clear,80,2013-11-25 20:35:00
3:55 PM,48.2,17.6,30,30.44,10.0,NE,4.6,-,N/A,,Clear,40,2013-11-25 20:55:00
4:15 PM,48.2,19.4,32,30.43,10.0,East,4.6,-,N/A,,Clear,90,2013-11-25 21:15:00
4:35 PM,48.2,19.4,32,30.43,10.0,East,3.5,-,N/A,,Clear,90,2013-11-25 21:35:00
4:55 PM,46.4,19.4,34,30.43,10.0,East,3.5,-,N/A,,Clear,90,2013-11-25 21:55:00
5:15 PM,46.4,21.2,37,30.43,10.0,Calm,Calm,-,N/A,,Mostly Cloudy,0,2013-11-25 22:15:00
5:35 PM,44.6,23.0,43,30.43,10.0,ENE,3.5,-,N/A,,Mostly Cloudy,60,2013-11-25 22:35:00
5:55 PM,44.6,23.0,43,30.43,10.0,East,3.5,-,N/A,,Mostly Cloudy,80,2013-11-25 22:55:00
6:15 PM,44.6,21.2,39,30.43,10.0,Calm,Calm,-,N/A,,Mostly Cloudy,0,2013-11-25 23:15:00
6:35 PM,44.6,23.0,43,30.43,10.0,Calm,Calm,-,N/A,,Mostly Cloudy,0,2013-11-25 23:35:00
6:55 PM,42.8,23.0,46,30.44,10.0,Calm,Calm,-,N/A,,Scattered Clouds,0,2013-11-25 23:55:00
7:15 PM,41.0,26.6,57,30.45,10.0,Calm,Calm,-,N/A,,Scattered Clouds,0,2013-11-26 00:15:00
7:35 PM,39.2,24.8,56,30.45,10.0,Calm,Calm,-,N/A,,Partly Cloudy,0,2013-11-26 00:35:00
7:55 PM,37.4,28.4,70,30.44,10.0,Calm,Calm,-,N/A,,Mostly Cloudy,0,2013-11-26 00:55:00
8:15 PM,39.2,26.6,61,30.43,10.0,Calm,Calm,-,N/A,,Mostly Cloudy,0,2013-11-26 01:15:00
8:35 PM,41.0,24.8,53,30.41,10.0,NE,8.1,-,N/A,,Overcast,50,2013-11-26 01:35:00
8:55 PM,42.8,19.4,39,30.39,10.0,NE,8.1,-,N/A,,Overcast,50,2013-11-26 01:55:00
9:15 PM,41.0,17.6,39,30.38,10.0,ENE,6.9,-,N/A,,Scattered Clouds,70,2013-11-26 02:15:00
9:35 PM,41.0,17.6,39,30.37,10.0,East,4.6,-,N/A,,Mostly Cloudy,90,2013-11-26 02:35:00
9:55 PM,41.0,17.6,39,30.37,10.0,East,4.6,-,N/A,,Overcast,80,2013-11-26 02:55:00
10:15 PM,41.0,17.6,39,30.36,10.0,ENE,4.6,-,N/A,,Mostly Cloudy,70,2013-11-26 03:15:00
10:35 PM,41.0,15.8,36,30.36,10.0,ENE,3.5,-,N/A,,Scattered Clouds,60,2013-11-26 03:35:00
10:55 PM,41.0,17.6,39,30.35,10.0,NE,3.5,-,N/A,,Mostly Cloudy,40,2013-11-26 03:55:00
11:15 PM,41.0,19.4,42,30.35,10.0,NNE,5.8,-,N/A,,Overcast,30,2013-11-26 04:15:00
11:35 PM,41.0,17.6,39,30.34,10.0,NNE,5.8,-,N/A,,Overcast,20,2013-11-26 04:35:00
11:55 PM,41.0,17.6,39,30.33,10.0,NNE,5.8,-,N/A,,Overcast,30,2013-11-26 04:55:00